(488760) = 2004 TP38 = 2013 SL7

Discovered at Kitt Peak on 2004-09-22 by Spacewatch.

Orbit

Orbit type: Main Belt

Note: WebGL enabled browser required.

epoch2024-03-31.0
epoch JD2460400.5
perihelion date2026-06-11.00488
perihelion JD2461202.50488
argument of perihelion (°)286.39940
ascending node (°)40.64701
inclination (°)3.36311
eccentricity0.1222052
perihelion distance (AU)2.3705543
Tisserand w.r.t. Jupiter3.4
ΔV w.r.t. Earth (km/sec)9.7
semimajor axis (AU)2.7005791
mean anomaly (°)181.88704
mean daily motion (°/day)0.22208460
aphelion distance (AU)3.031
period (years)4.44
P-vector [x]0.83803527
P-vector [y]-0.47553731
P-vector [z]-0.26750916
Q-vector [x]0.54427624
Q-vector [y]0.76294302
Q-vector [z]0.34882849
absolute magnitude17.66
phase slope0.15
uncertainty0
referenceMPEC 2024-C163
observations used107
oppositions9
arc length (days)10373
first opposition used1995
last opposition used2024
residual rms (arc-secs)0.75
perturbers coarse indicatorM-v
perturbers precise indicator003Ek
first observation date used1995-09-19.0
last observation date used2024-02-12.0
computer nameMPCLINUX
JD of orbit computation2457849.329514
perihelion JD uncertainty (days)2.0924E-04
argument of perihelion uncertainty (°)8.6514E-05
ascending node uncertainty (°)7.6049E-05
inclination uncertainty (°)7.0844E-06
eccentricity uncertainty 1.0125E-07
perihelion distance uncertainty (AU)2.6976E-07
Minimum Orbit Intersection Distances (in AU)
for orbit epoch: 2460200.5, reference: E2024-CG3
Mercury1.95296
Venus1.64176
Earth1.36044
Mars0.98656
Jupiter2.27314
Saturn6.13416
Uranus15.4311
Neptune27.1935

Observations

108 total observations over interval: 1995 09 19.25983 – 2024 02 12.541807
These data are available for download (format description).

Date (UT) J2000 RA J2000 Dec Magn Location Ref
1995 09 19.25983 00 42 49.92 +00 55 05.7   691 – Steward Observatory, Kitt Peak-Spacewatch MPS 496941
1995 09 19.28067 00 42 48.89 +00 55 00.9   691 – Steward Observatory, Kitt Peak-Spacewatch MPS 496941
1995 09 19.30151 00 42 47.86 +00 54 55.9 21.3 V 691 – Steward Observatory, Kitt Peak-Spacewatch MPS 496941
2004 09 22.42695 01 47 26.60 +08 43 30.7 20.9 V 691 – Steward Observatory, Kitt Peak-Spacewatch MPS 118520
2004 09 22.45328 01 47 25.57 +08 43 26.8 21.3 V 691 – Steward Observatory, Kitt Peak-Spacewatch MPS 118520
2004 09 22.47989 01 47 24.50 +08 43 22.6 21.1 V 691 – Steward Observatory, Kitt Peak-Spacewatch MPS 118520
2004 10 04.27283 01 38 42.50 +08 07 16.3 20.9 V 691 – Steward Observatory, Kitt Peak-Spacewatch MPS 117731
2004 10 04.30195 01 38 41.02 +08 07 10.1 21.0 V 691 – Steward Observatory, Kitt Peak-Spacewatch MPS 117731
2004 10 04.33011 01 38 39.52 +08 07 03.9 21.2 V 691 – Steward Observatory, Kitt Peak-Spacewatch MPS 117731
2004 10 08.26682 01 35 17.48 +07 52 58.6 21.0 V 691 – Steward Observatory, Kitt Peak-Spacewatch MPS 117731
2004 10 08.29360 01 35 16.03 +07 52 52.8 21.4 V 691 – Steward Observatory, Kitt Peak-Spacewatch MPS 117731
2004 10 08.32082 01 35 14.53 +07 52 46.8 20.8 V 691 – Steward Observatory, Kitt Peak-Spacewatch MPS 117731
2004 10 14.29785 01 29 54.49 +07 30 34.1 20.8 V 691 – Steward Observatory, Kitt Peak-Spacewatch MPS 118520
2004 10 14.32459 01 29 52.99 +07 30 28.0 21.1 V 691 – Steward Observatory, Kitt Peak-Spacewatch MPS 118520
2004 10 14.35490 01 29 51.25 +07 30 20.7 21.2 V 691 – Steward Observatory, Kitt Peak-Spacewatch MPS 118520
2013 09 17.40864 02 50 12.04 +15 06 12.9 21.2 V G96 – Mt. Lemmon Survey MPS 477894
2013 09 17.41938 02 50 11.97 +15 06 12.5 21.6 V G96 – Mt. Lemmon Survey MPS 477894
2013 09 17.43008 02 50 11.84 +15 06 12.7 21.4 V G96 – Mt. Lemmon Survey MPS 477894
2013 09 17.44082 02 50 11.70 +15 06 12.5 21.4 V G96 – Mt. Lemmon Survey MPS 477894
2013 10 01.39361 02 45 33.02 +14 59 46.8 20.8 V 691 – Steward Observatory, Kitt Peak-Spacewatch MPS 496941
2013 10 01.41207 02 45 32.43 +14 59 47.1 21.0 V 691 – Steward Observatory, Kitt Peak-Spacewatch MPS 496941
2013 10 01.43720 02 45 31.59 +14 59 45.4 21.4 V 691 – Steward Observatory, Kitt Peak-Spacewatch MPS 496941
2013 10 09.29258 02 40 37.73 +14 46 55.2 21.1 V 691 – Steward Observatory, Kitt Peak-Spacewatch MPS 496941
2013 10 09.31048 02 40 36.96 +14 46 53.2 21.3 V 691 – Steward Observatory, Kitt Peak-Spacewatch MPS 496941
2013 10 09.32838 02 40 36.11 +14 46 50.3 21.4 V 691 – Steward Observatory, Kitt Peak-Spacewatch MPS 496941
2013 10 23.44395 02 28 49.58 +14 10 29.8 20.9 V G96 – Mt. Lemmon Survey MPS 496941
2013 10 23.44863 02 28 49.31 +14 10 28.8 20.7 V G96 – Mt. Lemmon Survey MPS 496941
2013 10 23.45333 02 28 49.05 +14 10 28.1 21.2 V G96 – Mt. Lemmon Survey MPS 496941
2013 10 23.45804 02 28 48.73 +14 10 27.0 20.6 V G96 – Mt. Lemmon Survey MPS 496941
2013 11 01.21524 02 20 36.88 +13 42 56.1 20.6 V G96 – Mt. Lemmon Survey MPS 496941
2013 11 01.22251 02 20 36.45 +13 42 54.3 20.4 V G96 – Mt. Lemmon Survey MPS 496941
2013 11 01.22978 02 20 36.02 +13 42 52.8 20.4 V G96 – Mt. Lemmon Survey MPS 496941
2013 11 01.23706 02 20 35.58 +13 42 51.7 20.2 V G96 – Mt. Lemmon Survey MPS 496941
2013 11 25.25113 02 01 32.115 +12 38 25.42 21.6 w F51 – Pan-STARRS 1, Haleakala MPS 496941
2013 11 25.26619 02 01 31.575 +12 38 24.01 21.3 w F51 – Pan-STARRS 1, Haleakala MPS 496941
2013 11 25.28117 02 01 31.035 +12 38 22.53 21.3 w F51 – Pan-STARRS 1, Haleakala MPS 496941
2013 11 25.29620 02 01 30.495 +12 38 20.94 21.5 w F51 – Pan-STARRS 1, Haleakala MPS 496941
2015 01 20.37638 09 07 36.645 +21 40 02.80 21.7 w F51 – Pan-STARRS 1, Haleakala MPS 562565
2015 01 20.38842 09 07 35.987 +21 40 06.00 21.9 w F51 – Pan-STARRS 1, Haleakala MPS 562565
2015 01 20.40049 09 07 35.337 +21 40 09.08 21.7 w F51 – Pan-STARRS 1, Haleakala MPS 562565
2015 01 22.39339 09 05 48.535 +21 48 38.23 21.8 w F51 – Pan-STARRS 1, Haleakala MPS 567482
2015 01 22.40551 09 05 47.853 +21 48 41.23 21.9 w F51 – Pan-STARRS 1, Haleakala MPS 567482
2015 01 22.41765 09 05 47.186 +21 48 44.32 21.9 w F51 – Pan-STARRS 1, Haleakala MPS 567482
2015 01 22.42981 09 05 46.512 +21 48 47.42 22.0 w F51 – Pan-STARRS 1, Haleakala MPS 567482
2016 05 01.06442 13 53 52.56 -11 02 17.0 22.1 V W84 – Cerro Tololo-DECam MPS 785104
2016 05 01.07080 13 53 52.21 -11 02 15.8   W84 – Cerro Tololo-DECam MPS 785104
2016 05 01.07716 13 53 51.86 -11 02 14.5   W84 – Cerro Tololo-DECam MPS 785104
2016 05 04.07151 13 51 18.28 -10 51 49.7 22.3 V W84 – Cerro Tololo-DECam MPS 785104
2016 05 04.07468 13 51 18.11 -10 51 49.0   W84 – Cerro Tololo-DECam MPS 785104
2016 05 04.07786 13 51 17.94 -10 51 48.2   W84 – Cerro Tololo-DECam MPS 785104
2016 05 04.08104 13 51 17.78 -10 51 47.3   W84 – Cerro Tololo-DECam MPS 785104
2017 07 25.56068 23 06 38.650 -11 12 32.18 21.2 w F51 – Pan-STARRS 1, Haleakala MPS 807890
2017 07 25.58301 23 06 38.350 -11 12 35.32 21.3 w F51 – Pan-STARRS 1, Haleakala MPS 807890
2017 07 25.59416 23 06 38.196 -11 12 37.03 21.3 w F51 – Pan-STARRS 1, Haleakala MPS 807890
2017 08 17.43201 22 55 39.415 -12 35 37.17 20.6 w F51 – Pan-STARRS 1, Haleakala MPS 812042
2017 08 17.44299 22 55 38.909 -12 35 39.95 20.7 w F51 – Pan-STARRS 1, Haleakala MPS 812042
2017 08 17.45395 22 55 38.404 -12 35 43.06 20.7 w F51 – Pan-STARRS 1, Haleakala MPS 812042
2017 08 17.46491 22 55 37.901 -12 35 45.91 20.6 w F51 – Pan-STARRS 1, Haleakala MPS 812042
2017 08 18.48615 22 54 52.521 -12 40 20.87 20.8 w F51 – Pan-STARRS 1, Haleakala MPS 813347
2017 08 18.49732 22 54 51.988 -12 40 23.92 20.7 w F51 – Pan-STARRS 1, Haleakala MPS 813347
2017 08 18.50846 22 54 51.463 -12 40 26.94 20.7 w F51 – Pan-STARRS 1, Haleakala MPS 813347
2017 08 18.51965 22 54 50.934 -12 40 29.88 20.8 w F51 – Pan-STARRS 1, Haleakala MPS 813347
2017 09 14.36827 22 32 47.631 -14 25 22.99 20.9 w F51 – Pan-STARRS 1, Haleakala MPS 816988
2017 09 14.37971 22 32 47.085 -14 25 24.75 20.9 w F51 – Pan-STARRS 1, Haleakala MPS 816988
2017 09 14.39112 22 32 46.541 -14 25 26.35 20.9 w F51 – Pan-STARRS 1, Haleakala MPS 816988
2017 09 14.40253 22 32 45.994 -14 25 28.11 20.8 w F51 – Pan-STARRS 1, Haleakala MPS 816988
2020 03 23.47050 11 37 19.573 +06 18 25.44 22.0 w F51 – Pan-STARRS 1, Haleakala MPS 1172062
2020 03 23.48231 11 37 18.967 +06 18 28.54 22.0 w F51 – Pan-STARRS 1, Haleakala MPS 1172062
2020 03 23.49412 11 37 18.357 +06 18 31.53 21.9 w F51 – Pan-STARRS 1, Haleakala MPS 1172062
2022 09 27.460903 03 43 15.153 +19 38 36.20 21.85 w F52 – Pan-STARRS 2, Haleakala MPS 1663345
2022 09 27.472959 03 43 15.088 +19 38 37.01 21.86 w F52 – Pan-STARRS 2, Haleakala MPS 1663345
2022 09 27.485045 03 43 15.031 +19 38 37.85 21.80 w F52 – Pan-STARRS 2, Haleakala MPS 1663345
2022 10 19.378012 03 34 55.778 +19 39 50.01 21.37 w F52 – Pan-STARRS 2, Haleakala MPS 1700406
2022 10 19.405797 03 34 54.612 +19 39 48.65 21.45 w F52 – Pan-STARRS 2, Haleakala MPS 1700406
2022 10 19.419691 03 34 54.014 +19 39 48.00 21.53 w F52 – Pan-STARRS 2, Haleakala MPS 1700406
2022 10 23.399328 03 32 00.758 +19 35 29.77 21.39 w F52 – Pan-STARRS 2, Haleakala MPS 1700406
2022 10 23.412729 03 32 00.090 +19 35 28.80 21.38 w F52 – Pan-STARRS 2, Haleakala MPS 1700406
2022 10 23.426058 03 31 59.450 +19 35 28.07 21.33 w F52 – Pan-STARRS 2, Haleakala MPS 1700406
2022 10 23.439517 03 31 58.815 +19 35 26.84 21.23 w F52 – Pan-STARRS 2, Haleakala MPS 1700406
2022 10 31.368354 03 25 16.885 +19 22 58.70 21.29 w F52 – Pan-STARRS 2, Haleakala MPS 1700406
2022 10 31.382274 03 25 16.087 +19 22 57.31 21.27 w F52 – Pan-STARRS 2, Haleakala MPS 1700406
2022 10 31.396167 03 25 15.306 +19 22 55.75 21.17 w F52 – Pan-STARRS 2, Haleakala MPS 1700406
2022 10 31.410131 03 25 14.510 +19 22 54.09 21.26 w F52 – Pan-STARRS 2, Haleakala MPS 1700406
2022 11 05.194288 03 20 45.949 +19 13 11.82 21.23 G G96 – Mt. Lemmon Survey MPS 1702990
2022 11 05.200096 03 20 45.568 +19 13 09.91 21.28 G G96 – Mt. Lemmon Survey MPS 1702990
2022 11 05.205908 03 20 45.254 +19 13 09.34 21.78 G G96 – Mt. Lemmon Survey MPS 1702990
2022 11 05.211727 03 20 44.869 +19 13 09.66 20.81 G G96 – Mt. Lemmon Survey MPS 1702990
2022 11 08.453337 03 17 35.970 +19 05 50.68 20.98 G G96 – Mt. Lemmon Survey MPS 1702990
2022 11 08.459091 03 17 35.646 +19 05 50.17 21.34 G G96 – Mt. Lemmon Survey MPS 1702990
2022 11 08.464870 03 17 35.279 +19 05 48.84 21.22 G G96 – Mt. Lemmon Survey MPS 1702990
2022 11 08.470638 03 17 34.955 +19 05 48.16 20.70 G G96 – Mt. Lemmon Survey MPS 1702990
2022 11 16.315234 03 09 54.080 +18 46 27.11 20.99 w F52 – Pan-STARRS 2, Haleakala MPS 1715813
2022 11 16.328510 03 09 53.283 +18 46 25.12 20.97 w F52 – Pan-STARRS 2, Haleakala MPS 1715813
2022 11 16.341773 03 09 52.500 +18 46 23.20 21.10 w F52 – Pan-STARRS 2, Haleakala MPS 1715813
2022 11 16.355137 03 09 51.683 +18 46 21.08 21.14 w F52 – Pan-STARRS 2, Haleakala MPS 1715813
2022 11 17.334501 03 08 54.596 +18 43 49.94 20.81 G G96 – Mt. Lemmon Survey MPS 1715813
2022 11 17.344811 03 08 54.017 +18 43 47.89 20.83 G G96 – Mt. Lemmon Survey MPS 1715813
2022 11 17.349965 03 08 53.704 +18 43 46.74   G96 – Mt. Lemmon Survey MPS 1715813
2022 12 17.104356 02 47 34.134 +17 43 05.05 21.43 G G96 – Mt. Lemmon Survey MPS 1725968
2022 12 17.109944 02 47 33.976 +17 43 04.87 21.72 G G96 – Mt. Lemmon Survey MPS 1725968
2022 12 17.115531 02 47 33.832 +17 43 04.91 21.41 G G96 – Mt. Lemmon Survey MPS 1725968
2022 12 17.121109 02 47 33.702 +17 43 03.18 20.79 G G96 – Mt. Lemmon Survey MPS 1725968
2024 02 08.360160 09 35 43.073 +19 31 28.02 21.69 w F52 – Pan-STARRS 2, Haleakala MPS 2144779
2024 02 08.372506 09 35 42.370 +19 31 31.24 21.77 w F52 – Pan-STARRS 2, Haleakala MPS 2144779
2024 02 08.384866 09 35 41.672 +19 31 34.24 21.66 w F52 – Pan-STARRS 2, Haleakala MPS 2144779
2024 02 12.518479 09 31 51.997 +19 49 04.08 21.77 w F52 – Pan-STARRS 2, Haleakala MPS 2144779
2024 02 12.530133 09 31 51.324 +19 49 06.52 21.63 w F52 – Pan-STARRS 2, Haleakala MPS 2144779
2024 02 12.541807 09 31 50.654 +19 49 09.53 21.72 w F52 – Pan-STARRS 2, Haleakala MPS 2144779